User: anonymous   Login
Location: Arpaise
(41.0333°N, 14.7333°E)
Time: 01:49:03
(UTC+00:00)
Language:

Nadezhda 3 Rocket - Orbit

View from above orbital plane
View from above orbital plane
View from above satellite
View from above satellite

Ground track
Ground track

The orbit data is extracted from the following two-line orbital elements,

1 21153U 91019B   20272.58499869 +.00000056 +00000-0 +41529-4 0  9999
2 21153 082.9285 030.2575 0029959 041.4156 330.1723 13.75955949483332
Epoch (UTC): 28 September 2020 14:02:23
Eccentricity: 0.0029959
inclination: 82.9285°
perigee height: 956 km
apogee height: 1000 km
right ascension of ascending node: 30.2575°
argument of perigee: 41.4156°
revolutions per day: 13.75955949
mean anomaly at epoch: 330.1723°
orbit number at epoch: 48333

The dashed part of the orbit path shows where the satellite is in the earth's shadow,  

DLR